Spokane, WA

3:10 PM PST on December 11, 2017 (GMT -0800)
Spokane International

Weather History for KGEG - October, 2010

Change the Weather History Date:

Tuesday, October 26, 2010

  Actual Average Record
Temperature  
Mean Temperature 41 °F 44 °F  
Max Temperature 47 °F 52 °F 73 °F (1938)
Min Temperature 35 °F 35 °F 19 °F (2002)
Degree Days  
Heating Degree Days 24 22  
Month to date heating degree days 362 428  
Since 1 July heating degree days 615 676  
Cooling Degree Days 0 0  
Month to date cooling degree days 4 0  
Year to date cooling degree days 380 449  
Moisture  
Dew Point 34 °F    
Average Humidity 76    
Maximum Humidity 92    
Minimum Humidity 60    
Precipitation  
Precipitation T in 0.05 in 0.72 in (1956)
Month to date precipitation 1.11 0.90  
Year to date precipitation 12.31 11.68  
Snow  
Snow 0.00 in 0.00 in 1.00 in (1939)
Month to date snowfall 0.0 0.0  
Since 1 July snowfall 0.0 0.0  
Since 1 September snowfall 0.0 0.0  
Snow Depth 0.00 in    
Sea Level Pressure  
Sea Level Pressure 29.89 in    
Wind  
Wind Speed 13 mph (SSW)    
Max Wind Speed 20 mph    
Max Gust Speed 24 mph    
Visibility 10 miles    
Events      
T = Trace of Precipitation, MM = Missing Value Source: NWS Daily Summary

Daily Weather History Graph

Daily Weather History Graph

Search for Another Location

Airport or City:

Trip Planner

Search our weather history database for the weather conditions in past years. The results will help you decide how hot, cold, wet, or windy it might be!

Date:

Astronomy

Oct. 26, 2010 Rise Set
Actual Time 7:25 AM PDT 5:42 PM PDT
Civil Twilight 6:53 AM PDT 6:13 PM PDT
Nautical Twilight 6:17 AM PDT 6:49 PM PDT
Astronomical Twilight 5:41 AM PDT 7:25 PM PDT
Moon 7:51 PM PDT (10/26) 11:28 AM PDT (10/26)
Length of Visible Light 11h 20m
Length of Day
10h 16m
Waning Gibbous, 86% of the Moon is Illuminated
Oct 26
Waning Gibbous
Oct 30
Last Quarter
Nov 5
New
Nov 13
First Quarter
Nov 21
Full

Hourly Weather History & Observations

Time (PDT) Temp. Windchill Dew Point Humidity Pressure Visibility Wind Dir Wind Speed Gust Speed Precip Events Conditions
12:53 AM 36.0 °F 26.0 °F 33.1 °F 89% 29.76 in 10.0 mi SSW 17.3 mph - N/A   Overcast
1:53 AM 36.0 °F 26.7 °F 33.1 °F 89% 29.77 in 10.0 mi SSW 15.0 mph - N/A   Overcast
2:39 AM 37.4 °F 28.5 °F 33.8 °F 87% 29.75 in 10.0 mi SSW 15.0 mph 23.0 mph N/A   Overcast
2:53 AM 37.0 °F 27.7 °F 33.1 °F 86% 29.78 in 10.0 mi SSW 16.1 mph 24.2 mph N/A   Overcast
3:53 AM 36.0 °F 27.1 °F 33.1 °F 89% 29.79 in 10.0 mi SSW 13.8 mph 23.0 mph 0.00 in   Light Drizzle
4:09 AM 35.6 °F 27.1 °F 33.8 °F 93% 29.76 in 10.0 mi SSW 12.7 mph - 0.00 in   Overcast
4:53 AM 36.0 °F 27.1 °F 33.1 °F 89% 29.80 in 10.0 mi SSW 13.8 mph - 0.00 in   Overcast
5:53 AM 36.0 °F 26.7 °F 33.1 °F 89% 29.82 in 10.0 mi SSW 15.0 mph - N/A   Overcast
6:53 AM 36.0 °F 26.7 °F 32.0 °F 86% 29.83 in 10.0 mi SSW 15.0 mph - N/A   Overcast
7:08 AM 35.6 °F 26.2 °F 33.8 °F 93% 29.79 in 10.0 mi SSW 15.0 mph - N/A   Overcast
7:53 AM 36.0 °F 27.1 °F 33.1 °F 89% 29.84 in 10.0 mi SSW 13.8 mph - N/A   Overcast
8:53 AM 36.0 °F 26.7 °F 33.1 °F 89% 29.86 in 10.0 mi SSW 15.0 mph - N/A   Overcast
9:16 AM 37.4 °F 28.5 °F 33.8 °F 87% 29.83 in 10.0 mi SSW 15.0 mph - N/A   Overcast
9:53 AM 37.9 °F 29.2 °F 33.1 °F 83% 29.88 in 10.0 mi SSW 15.0 mph - N/A   Mostly Cloudy
10:13 AM 37.4 °F 28.5 °F 33.8 °F 87% 29.84 in 10.0 mi SSW 15.0 mph - N/A   Mostly Cloudy
10:53 AM 39.9 °F 32.5 °F 34.0 °F 79% 29.88 in 10.0 mi SSW 12.7 mph - N/A   Mostly Cloudy
11:29 AM 42.8 °F 35.8 °F 33.8 °F 70% 29.86 in 10.0 mi SSW 13.8 mph - N/A   Mostly Cloudy
11:53 AM 42.1 °F 35.2 °F 34.0 °F 73% 29.90 in 10.0 mi SSW 12.7 mph - N/A   Mostly Cloudy
12:53 PM 44.1 °F 37.4 °F 34.0 °F 68% 29.91 in 10.0 mi SW 13.8 mph - N/A   Overcast
1:53 PM 45.0 °F 38.9 °F 34.0 °F 65% 29.91 in 10.0 mi SW 12.7 mph - N/A   Overcast
2:53 PM 46.0 °F 39.6 °F 34.0 °F 63% 29.92 in 10.0 mi SSW 15.0 mph - N/A   Mostly Cloudy
3:53 PM 46.0 °F 41.0 °F 35.1 °F 66% 29.94 in 10.0 mi SSW 10.4 mph - N/A   Mostly Cloudy
4:53 PM 46.0 °F 41.9 °F 35.1 °F 66% 29.96 in 10.0 mi SSW 8.1 mph - N/A   Overcast
5:53 PM 45.0 °F 39.7 °F 34.0 °F 65% 29.97 in 10.0 mi SSW 10.4 mph - N/A   Overcast
6:53 PM 44.6 °F 38.1 °F 35.6 °F 71% 29.95 in 10.0 mi SSW 13.8 mph - N/A   Overcast
7:53 PM 42.8 °F 35.4 °F 35.6 °F 76% 29.98 in 10.0 mi SSW 15.0 mph - N/A   Overcast
8:53 PM 41.0 °F 33.9 °F 35.1 °F 79% 30.04 in 10.0 mi SSW 12.7 mph - N/A   Mostly Cloudy
9:18 PM 39.2 °F 32.0 °F 35.6 °F 87% 30.01 in 10.0 mi SSW 11.5 mph - N/A   Overcast
9:53 PM 39.9 °F 31.4 °F 35.1 °F 83% 30.06 in 10.0 mi SSW 16.1 mph - N/A   Overcast
10:28 PM 39.2 °F 30.8 °F 35.6 °F 87% 30.03 in 10.0 mi SSW 15.0 mph - N/A   Overcast
10:53 PM 39.9 °F 32.1 °F 35.1 °F 83% 30.07 in 10.0 mi SSW 13.8 mph - N/A   Overcast
11:53 PM 39.9 °F 34.5 °F 36.0 °F 86% 30.09 in 10.0 mi South 8.1 mph - N/A   Overcast